Regional Weather Roundup
Issued by NWS

Home | Current Version | Previous Version | Text Only | Print | Product List | Glossary On
Versions: 1 2 3 4 5 6 7 8 9 10 11 12 13 14 15 16 17 18 19 20 21 22 23 24 25 26 27 28 29 30 31 32 33 34 35 36 37 38 39 40 41 42 43 44 45 46 47 48 49 50
000
ASUS43 KDTX 310601
RWRMI
MICHIGAN HOURLY REGIONAL WEATHER ROUNDUP
NATIONAL WEATHER SERVICE DETROIT/PONTIAC MI
200 AM EDT TUE MAY 31 2016

NOTE: "FAIR" INDICATES FEW OR NO CLOUDS BELOW 12,000 FEET WITH NO
SIGNIFICANT WEATHER AND/OR OBSTRUCTION TO VISIBILITY.

MIZ047>049-052>055-059>063-066>070-074>076-081>083-310700-
SOUTHEAST LOWER MICHIGAN

CITY           SKY/WX    TMP DP  RH WIND       PRES   REMARKS
ADRIAN         CLEAR     61  54  77 CALM      30.00S
6HR MIN TEMP:  60; 6HR MAX TEMP:  81;

ALMA           CLOUDY    53  50  91 CALM      30.01S
ANN ARBOR      CLEAR     66  52  60 N6        29.99S
BAD AXE        PTCLDY    53  50  92 CALM      30.00R
CARO           CLEAR     51  49  93 CALM      29.99S
DETROIT CITY   CLOUDY    70  53  54 CALM      29.97S
6HR MIN TEMP:  70; 6HR MAX TEMP:  82;

DETROIT        PTCLDY    67  53  61 NW6       29.98S
6HR MIN TEMP:  67; 6HR MAX TEMP:  81;

FLINT          CLEAR     59  51  75 CALM      30.00S
6HR MIN TEMP:  57; 6HR MAX TEMP:  82;

GROSSE ILE     PTCLDY    64  61  88 CALM      29.96S
HILLSDALE      CLEAR     60  55  81 CALM      30.01S
6HR MIN TEMP:  60; 6HR MAX TEMP:  79;

HOWELL         CLEAR     63  50  63 CALM      30.00S

CITY           SKY/WX    TMP DP  RH WIND       PRES   REMARKS
JACKSON        CLOUDY    59  54  83 CALM      30.01S
6HR MIN TEMP:  57; 6HR MAX TEMP:  76;

LAMBERTVILLE   PTCLDY    60  55  84 CALM      29.99S HAZE
6HR MIN TEMP:  60; 6HR MAX TEMP:  83;

LANSING        CLEAR     59  55  87 CALM      30.01S
6HR MIN TEMP:  59; 6HR MAX TEMP:  79;

LAPEER         FAIR      58  54  87 CALM      30.00S
6HR MIN TEMP:  58; 6HR MAX TEMP:  78;

MASON          PTCLDY    59  54  84 SE3       30.01S
MONROE         CLEAR     61  58  90 W6        29.97S
6HR MIN TEMP:  61; 6HR MAX TEMP:  76;

PONTIAC        CLEAR     64  51  62 N3        29.99S
6HR MIN TEMP:  64; 6HR MAX TEMP:  80;

PORT HOPE        N/A     57  55  93 CALM      29.97F
6HR MIN TEMP:  57; 6HR MAX TEMP:  71;

PORT HURON     CLEAR     61  57  88 CALM      29.98R
TRI CITIES     CLEAR     62  48  60 CALM      30.00S
6HR MIN TEMP:  62; 6HR MAX TEMP:  79;

MIDLAND        FAIR      52  50  94 CALM      29.99F
6HR MIN TEMP:  52; 6HR MAX TEMP:  77;

TROY           CLEAR     70  51  50 N5        30.00S
SAGINAW HB     CLEAR     59  50  72 CALM      29.99F
$$
MIZ043>046-050>051-056>058-064>065-071>073-077>080-310700-
SOUTHWEST LOWER MICHIGAN

CITY           SKY/WX    TMP DP  RH WIND       PRES   REMARKS
BATTLE CREEK   PTCLDY    61  54  77 CALM      30.02S
6HR MIN TEMP:  61; 6HR MAX TEMP:  77;

BENTON HARBOR  CLEAR     60  55  83 CALM      29.99F
6HR MIN TEMP:  59; 6HR MAX TEMP:  79;

BIG RAPIDS     CLEAR     53  52  95 CALM      30.01S
6HR MIN TEMP:  53; 6HR MAX TEMP:  73;

COLDWATER      CLEAR     58  54  86 CALM      30.01S
6HR MIN TEMP:  58; 6HR MAX TEMP:  79;

FREMONT        FAIR      55  55 100 CALM      30.00S
HOLLAND        CLOUDY    58  55  90 CALM      30.01S
6HR MIN TEMP:  58; 6HR MAX TEMP:  77;

GRAND RAPIDS   CLEAR     62  55  77 CALM      30.01S
6HR MIN TEMP:  62; 6HR MAX TEMP:  79;

IONIA          FAIR      59  51  74 CALM      30.01R
6HR MIN TEMP:  58; 6HR MAX TEMP:  77;

KALAMAZOO      CLEAR     62  55  77 CALM      30.01S
6HR MIN TEMP:  61; 6HR MAX TEMP:  78;

LUDINGTON      CLEAR     51  51 100 CALM      30.01R
6HR MIN TEMP:  51; 6HR MAX TEMP:  66;

MARSHALL       CLEAR     59  56  90 CALM      30.00S
6HR MIN TEMP:  58; 6HR MAX TEMP:  77;

MOUNT PLEASANT CLOUDY    53  51  92 CALM      30.00S
6HR MIN TEMP:  53; 6HR MAX TEMP:  76;

MUSKEGON         N/A     60  55  83 CALM      30.00F
6HR MIN TEMP:  59; 6HR MAX TEMP:  73;

SOUTH HAVEN    CLEAR     58  56  94 CALM      30.00F
$$
MIZ016>042-310700-
NORTHERN LOWER MICHIGAN

CITY           SKY/WX    TMP DP  RH WIND       PRES   REMARKS
ALPENA         CLEAR     52  50  93 CALM      29.99F
6HR MIN TEMP:  52; 6HR MAX TEMP:  75;

BEAVER ISLAND  CLEAR     54  49  83 NW5       30.02F
6HR MIN TEMP:  49; 6HR MAX TEMP:  64;

BELLAIRE       CLEAR     53  51  94 CALM      30.02R
6HR MIN TEMP:  51; 6HR MAX TEMP:  74;

CADILLAC       CLEAR     51  49  90 CALM      30.02R
CHARLEVOIX     CLEAR     53  51  92 NW5       30.04F
FRANKFORT      CLEAR     57  55  91 CALM      30.01R
GAYLORD        CLEAR     60  49  66 W5        30.01F
6HR MIN TEMP:  52; 6HR MAX TEMP:  72;

GRAYLING       CLEAR     49  48  94 CALM        N/A
HARBOR SPRINGS CLEAR     53  52  95 SW3       30.01S
HOUGHTON LAKE  CLEAR     52  51  97 CALM      30.01F
6HR MIN TEMP:  52; 6HR MAX TEMP:  73;

OSCODA         CLEAR     53  48  85 CALM      29.98S
6HR MIN TEMP:  53; 6HR MAX TEMP:  71;

PELLSTON       CLEAR     53  49  86 NW5       30.02R
6HR MIN TEMP:  51; 6HR MAX TEMP:  72;

ROGERS CITY    CLEAR     56  49  77 W3        30.01S
TRAVERSE CITY  CLEAR     57  52  83 CALM      30.00S
6HR MIN TEMP:  56; 6HR MAX TEMP:  76;

$$
MIZ007>008-015-310700-
EASTERN UPPER MICHIGAN

CITY           SKY/WX    TMP DP  RH WIND       PRES   REMARKS
KINROSS          N/A     52  46  82 NW9       30.00S
6HR MIN TEMP:  50; 6HR MAX TEMP:  66;

MACKINAC ISLAN CLEAR     53  48  83 W6        30.01S
6HR MIN TEMP:  53; 6HR MAX TEMP:  64;

NEWBERRY       CLEAR     47  45  90 NW9       30.03S
6HR MIN TEMP:  47; 6HR MAX TEMP:  69;

S. S. MARIE    CLEAR     49  45  86 NW10      29.99S
6HR MIN TEMP:  49; 6HR MAX TEMP:  65;

MUNISING         N/A     48  44  86 NW13      30.07S
6HR MIN TEMP:  48; 6HR MAX TEMP:  62;

$$
MIZ004>006-011>014-085-310700-
CENTRAL UPPER MICHIGAN

CITY           SKY/WX    TMP DP  RH WIND       PRES   REMARKS
MANISTIQUE     CLEAR     49  46  89 N8        30.03F
6HR MIN TEMP:  49; 6HR MAX TEMP:  69;

ESCANABA       CLEAR     52  45  76 N6        30.04S
6HR MIN TEMP:  52; 6HR MAX TEMP:  79;

MENOMINEE      CLEAR     59  49  69 NE9       30.03R
6HR MIN TEMP:  59; 6HR MAX TEMP:  79;

SAWYER-GWINN   PTCLDY    45  41  85 N10       30.08S
6HR MIN TEMP:  45; 6HR MAX TEMP:  74;

$$
MIZ001>003-009>011-084-310700-
WESTERN UPPER MICHIGAN

CITY           SKY/WX    TMP DP  RH WIND       PRES   REMARKS
IRON MOUNTAIN  CLEAR     53  46  77 NE7       30.05R
6HR MIN TEMP:  53; 6HR MAX TEMP:  77;

HOUGHTON       CLOUDY    47  42  83 E7        30.08F
6HR MIN TEMP:  46; 6HR MAX TEMP:  66;

COPPER HARBOR    N/A     44  41  89 CALM      30.10F
6HR MIN TEMP:  44; 6HR MAX TEMP:  53;

IRONWOOD       CLOUDY    57  48  72 E9        30.01F
6HR MIN TEMP:  57; 6HR MAX TEMP:  73;

$$

ABBREVIATIONS USED IN REMARKS
   TC - TEMPERATURE IN CELSIUS
  WCI - WIND CHILL INDEX
   HX - HEAT INDEX
  VSB - VISIBILITY




USA.gov is the U.S. government's official web portal to all federal, state and local government web resources and services.